OK2ARM-6 Weather Reports


time (UTC)temp
C
wind
direction
speed
KPH
gust
KPH
rain 1hr
cm
rain 24hr
cm
rain mn
cm
humidity
%
barometer
mb
20260507184909 15 0.0 0.0 0.00 0.00 0.00 100 1013.8
20260507182646 15 0.0 0.0 0.00 0.00 0.00 100 1013.4
20260507181647 15 0.0 0.0 0.00 0.00 0.00 100 1013.1
20260507180646 16 0.0 0.0 0.00 0.00 0.00 100 1013.0
20260507171935 17 0.0 0.0 0.00 0.00 0.00 100 1012.7
20260507170935 17 0.0 0.0 0.00 0.00 0.00 100 1012.7
20260507164711 17 0.0 0.0 0.00 0.00 0.00 100 1012.5
20260507163711 18 0.0 0.0 0.00 0.00 0.00 100 1012.4
20260507162711 18 0.0 0.0 0.00 0.00 0.00 100 1012.4
20260507161712 18 0.0 0.0 0.00 0.00 0.00 100 1012.4
20260507160711 18 0.0 0.0 0.00 0.00 0.00 100 1012.2
20260507155711 18 0.0 0.0 0.00 0.00 0.00 100 1012.3
20260507154711 18 0.0 0.0 0.00 0.00 0.00 100 1012.3
20260507153711 18 0.0 0.0 0.00 0.00 0.00 100 1012.4
20260507152711 18 0.0 0.0 0.00 0.00 0.00 100 1012.3
20260507151711 19 0.0 0.0 0.00 0.00 0.00 100 1012.3
20260507150711 20 0.0 0.0 0.00 0.00 0.00 100 1012.2
20260507145711 20 0.0 0.0 0.00 0.00 0.00 100 1012.2
20260507144711 22 0.0 0.0 0.00 0.00 0.00 100 1012.1
20260507141223 20 0.0 0.0 0.00 0.00 0.00 100 1012.2
20260507140223 21 0.0 0.0 0.00 0.00 0.00 100 1012.2
20260507135222 21 0.0 0.0 0.00 0.00 0.00 100 1012.2
20260507134223 18 0.0 0.0 0.00 0.00 0.00 100 1012.1
20260507133223 19 0.0 0.0 0.00 0.00 0.00 100 1012.1
20260507132222 19 0.0 0.0 0.00 0.00 0.00 100 1012.1
20260507131222 18 0.0 0.0 0.00 0.00 0.00 100 1012.2
20260507130222 18 0.0 0.0 0.00 0.00 0.00 100 1012.2
20260507125222 19 0.0 0.0 0.00 0.00 0.00 100 1012.3
20260507124223 21 0.0 0.0 0.00 0.00 0.00 100 1012.1
20260507123223 21 0.0 0.0 0.00 0.00 0.00 100 1012.2
20260507122222 20 0.0 0.0 0.00 0.00 0.00 100 1012.2
20260507121223 23 0.0 0.0 0.00 0.00 0.00 100 1012.2
20260507120222 21 0.0 0.0 0.00 0.00 0.00 100 1012.3
20260507115222 19 0.0 0.0 0.00 0.00 0.00 100 1012.4
20260507114222 21 0.0 0.0 0.00 0.00 0.00 100 1012.3
20260507113222 20 0.0 0.0 0.00 0.00 0.00 100 1012.4
20260507112223 21 0.0 0.0 0.00 0.00 0.00 100 1012.4
20260507111222 21 0.0 0.0 0.00 0.00 0.00 100 1012.3
20260507110223 22 0.0 0.0 0.00 0.00 0.00 100 1012.3
20260507105222 20 0.0 0.0 0.00 0.00 0.00 100 1012.4
20260507104223 20 0.0 0.0 0.00 0.00 0.00 100 1012.4
20260507101958 18 0.0 0.0 0.00 0.00 0.00 100 1012.4
20260507100959 18 0.0 0.0 0.00 0.00 0.00 100 1012.4
20260507095958 18 0.0 0.0 0.00 0.00 0.00 100 1012.4
20260507094959 18 0.0 0.0 0.00 0.00 0.00 100 1012.3
20260507093959 18 0.0 0.0 0.00 0.00 0.00 100 1012.3
20260507092959 17 0.0 0.0 0.00 0.00 0.00 100 1012.3
20260507091959 17 0.0 0.0 0.00 0.00 0.00 100 1012.2
20260507090959 17 0.0 0.0 0.00 0.00 0.00 100 1012.2
20260507085958 16 0.0 0.0 0.00 0.00 0.00 100 1012.0
20260507084958 16 0.0 0.0 0.00 0.00 0.00 100 1011.9
20260507083958 16 0.0 0.0 0.00 0.00 0.00 100 1012.0
20260507080512 15 0.0 0.0 0.00 0.00 0.00 6 1011.6
20260507075511 15 0.0 0.0 0.00 0.00 0.00 100 1011.7
20260507074511 15 0.0 0.0 0.00 0.00 0.00 10 1011.7
20260507073511 15 0.0 0.0 0.00 0.00 0.00 41 1011.7
20260507072511 15 0.0 0.0 0.00 0.00 0.00 43 1011.6
20260507071511 14 0.0 0.0 0.00 0.00 0.00 41 1011.5
20260507070512 14 0.0 0.0 0.00 0.00 0.00 59 1011.5
20260507065511 14 0.0 0.0 0.00 0.00 0.00 55 1011.5
20260507064511 14 0.0 0.0 0.00 0.00 0.00 58 1011.3
20260507062247 14 0.0 0.0 0.00 0.00 0.00 76 1011.2
20260507061247 13 0.0 0.0 0.00 0.00 0.00 67 1010.9
20260507060247 13 0.0 0.0 0.00 0.00 0.00 78 1010.8
20260507055248 13 0.0 0.0 0.00 0.00 0.00 88 1010.7
20260507054247 13 0.0 0.0 0.00 0.00 0.00 95 1010.7
20260507052024 13 0.0 0.0 0.00 0.00 0.00 100 1010.6
20260507051025 12 0.0 0.0 0.00 0.00 0.00 100 1010.5
20260507044800 11 0.0 0.0 0.00 0.00 0.00 100 1010.1
20260507043800 11 0.0 0.0 0.00 0.00 0.00 100 1010.0
20260507042800 11 0.0 0.0 0.00 0.00 0.00 100 1009.8
20260507041800 11 0.0 0.0 0.00 0.00 0.00 100 1009.8
20260507040800 11 0.0 0.0 0.00 0.00 0.00 100 1009.8
20260507035801 10 0.0 0.0 0.00 0.00 0.00 100 1009.7
20260507033537 10 0.0 0.0 0.00 0.00 0.00 100 1009.4
20260507032536 10 0.0 0.0 0.00 0.00 0.00 100 1009.4
20260507031536 11 0.0 0.0 0.00 0.00 0.00 100 1009.2
20260507030536 11 0.0 0.0 0.00 0.00 0.00 100 1009.2
20260507023049 11 0.0 0.0 0.00 0.00 0.00 100 1008.9
20260507022049 11 0.0 0.0 0.00 0.00 0.00 100 1008.9
20260507021050 11 0.0 0.0 0.00 0.00 0.00 100 1009.0
20260507020049 11 0.0 0.0 0.00 0.00 0.00 100 1008.8
20260507013825 12 0.0 0.0 0.00 0.00 0.00 100 1008.4
20260507012825 12 0.0 0.0 0.00 0.00 0.00 100 1008.2
20260507011825 12 0.0 0.0 0.00 0.00 0.00 100 1008.2
20260507010825 12 0.0 0.0 0.00 0.00 0.00 100 1008.2
20260507005825 12 0.0 0.0 0.00 0.00 0.00 100 1008.1
20260507004825 12 0.0 0.0 0.00 0.00 0.00 100 1008.1
20260507003825 12 0.0 0.0 0.00 0.00 0.00 100 1007.9
20260507002825 12 0.0 0.0 0.00 0.00 0.00 100 1007.6
20260507001825 12 0.0 0.0 0.00 0.00 0.00 100 1007.8
20260507000825 13 0.0 0.0 0.00 0.00 0.00 100 1007.8
20260506235825 13 0.0 0.0 0.00 0.00 0.00 100 1007.8
20260506232338 13 0.0 0.0 0.00 0.00 0.00 100 1007.4
20260506231338 13 0.0 0.0 0.00 0.00 0.00 100 1007.1
20260506230338 13 0.0 0.0 0.00 0.00 0.00 100 1006.7
20260506225338 13 0.0 0.0 0.00 0.00 0.00 100 1006.7
20260506224338 13 0.0 0.0 0.00 0.00 0.00 100 1006.4
20260506220849 15 0.0 0.0 0.00 0.00 0.00 100 1005.9
20260506215849 15 0.0 0.0 0.00 0.00 0.00 35 1005.8
20260506213624 16 0.0 0.0 0.00 0.00 0.00 100 1005.6
20260506212624 16 0.0 0.0 0.00 0.00 0.00 100 1005.4
20260506211624 16 0.0 0.0 0.00 0.00 0.00 100 1005.2
20260506210624 16 0.0 0.0 0.00 0.00 0.00 100 1005.1
20260506205624 17 0.0 0.0 0.00 0.00 0.00 100 1004.7
20260506204625 17 0.0 0.0 0.00 0.00 0.00 100 1004.7
20260506203624 17 0.0 0.0 0.00 0.00 0.00 100 1004.7
20260506202624 17 0.0 0.0 0.00 0.00 0.00 100 1004.6
20260506201625 17 0.0 0.0 0.00 0.00 0.00 100 1004.7
20260506200624 17 0.0 0.0 0.00 0.00 0.00 100 1004.8
20260506195624 18 0.0 0.0 0.00 0.00 0.00 100 1004.7
20260506194624 18 0.0 0.0 0.00 0.00 0.00 100 1004.7
20260506193624 18 0.0 0.0 0.00 0.00 0.00 100 1004.6
20260506192625 18 0.0 0.0 0.00 0.00 0.00 100 1004.5
20260506191624 18 0.0 0.0 0.00 0.00 0.00 100 1004.3
20260506190624 18 0.0 0.0 0.00 0.00 0.00 100 1004.2